GFSCGP_850_temp_075.txt.gz
Temp
19 17 16 18 18 20 21 21 21 22 24 24 20 19 19 18 18 20 20 21 21 21 21 21 21 22 21 21 20 20 21 20 19 19 19 19 19 19 19 18 19 19 18 18
17 17 18 20 21 21 21 21 20 21 23 21 18 19 19 19 18 19 20 20 21 21 21 21 22 21 22 21 20 20 20 20 19 20 20 20 19 19 19 19 19 18 18 19
17 20 21 21 21 21 20 19 20 21 22 19 19 19 19 19 18 19 19 20 21 21 21 21 22 22 22 21 21 21 21 21 20 20 19 19 19 19 19 19 19 19 18 18
19 20 21 21 20 20 19 20 22 22 21 21 21 19 19 19 18 19 19 19 20 21 22 21 22 22 22 22 21 21 21 21 20 20 20 20 19 19 19 19 19 19 19 19
19 21 20 20 21 20 20 21 21 22 21 21 22 19 19 18 18 18 19 20 20 21 22 21 22 22 22 22 21 22 22 21 21 21 20 20 20 20 20 19 19 19 19 19
20 22 21 20 22 21 23 22 19 16 16 18 20 20 19 16 19 19 19 19 20 20 21 21 21 22 22 22 22 22 22 22 21 21 21 20 20 20 19 19 19 19 19 19
19 20 19 20 22 21 19 17 16 18 17 18 19 19 20 19 19 20 20 19 20 21 21 21 21 22 22 22 22 22 22 22 21 21 21 21 20 20 20 20 20 19 19 20
16 18 18 19 19 20 21 18 16 19 16 18 17 20 22 22 23 23 21 21 20 20 21 21 22 22 22 23 22 22 22 22 22 21 21 21 20 20 20 20 20 20 20 20
15 17 17 19 18 18 19 16 18 14 15 17 18 20 22 20 20 20 21 21 20 20 20 21 22 22 22 23 23 23 22 22 22 22 22 22 21 20 20 20 20 20 20 20
15 17 15 17 18 17 15 16 17 13 16 19 17 18 17 18 18 18 19 20 20 20 20 21 21 22 23 23 23 23 23 23 22 22 22 22 22 21 20 20 20 20 20 20
13 13 15 15 14 14 13 12 11 12 13 14 16 16 18 17 17 17 17 18 20 21 20 22 22 22 22 22 22 23 22 22 23 22 22 22 22 22 21 21 20 20 20 20
12 8 11 13 12 15 14 12 10 10 13 11 13 14 16 17 18 18 17 18 20 20 20 22 22 21 21 22 22 23 22 22 22 23 22 22 22 22 22 22 21 20 20 20
13 9 11 13 12 11 12 12 12 9 8 10 11 14 17 16 16 17 16 16 19 20 20 20 20 19 19 20 20 19 20 21 22 22 22 22 22 22 22 22 22 21 20 20
12 6 9 10 11 10 11 12 12 10 9 10 11 12 13 13 13 14 15 15 16 18 18 18 18 18 18 19 19 19 18 19 21 21 21 22 22 22 22 22 22 22 21 20
8 8 10 10 11 11 11 11 12 12 13 12 13 12 10 11 12 12 13 14 14 15 17 18 18 17 19 19 19 19 19 19 19 19 21 21 22 22 22 22 22 22 22 21
7 7 9 9 10 10 11 11 12 13 13 13 13 13 10 11 12 11 11 13 13 13 14 14 16 16 17 19 20 20 20 19 18 19 20 21 21 22 22 22 22 22 21 22
7 6 6 8 8 9 9 11 12 12 11 12 11 10 10 10 11 10 11 12 12 12 12 14 14 15 14 15 16 17 19 19 20 19 19 19 19 20 21 21 22 22 22 21
6 5 4 6 7 7 9 11 12 10 10 10 10 10 9 9 11 10 11 11 11 12 12 12 13 14 14 15 16 17 18 19 19 19 17 17 18 19 20 20 21 21 21 21
6 4 4 5 5 7 10 10 9 10 8 8 8 8 8 8 10 11 10 10 11 11 12 12 12 14 14 15 15 16 16 16 18 18 18 18 18 19 19 19 20 20 20 21
4 3 4 4 4 6 8 7 7 8 7 7 7 6 6 7 9 9 10 10 10 11 12 12 12 13 14 15 15 15 15 16 16 16 17 18 19 19 18 18 19 19 20 21
2 4 4 4 3 6 5 5 7 8 7 6 5 5 5 4 6 6 7 9 9 10 10 12 12 12 12 14 16 15 14 15 15 16 17 17 17 17 18 18 19 20 19 20
3 4 3 4 3 5 5 6 7 4 4 4 4 3 3 4 5 7 6 7 9 9 10 10 11 12 12 12 16 15 15 14 15 15 16 17 17 17 18 20 21 21 21 20
3 3 1 4 4 4 4 5 4 3 3 3 2 2 2 3 3 6 7 6 7 8 9 9 9 12 13 12 14 16 15 15 16 15 16 17 18 19 20 21 22 21 21 19
3 4 2 2 4 4 4 4 3 3 3 3 2 2 2 3 3 4 5 6 6 7 8 8 10 9 11 13 13 13 15 15 15 16 17 17 17 19 20 21 22 22 22 21
2 3 1 1 3 4 5 4 3 3 3 2 2 2 2 2 2 3 4 5 5 6 7 7 7 8 10 11 13 13 15 13 14 16 16 17 16 17 20 20 22 22 23 23
3 2 1 1 5 5 5 4 4 3 3 3 2 2 2 2 2 3 4 4 5 5 7 7 7 8 8 10 11 13 16 18 15 15 15 16 17 17 18 19 20 21 23 23

GFSCGP_850_temp_078.txt.gz
Temp
18 15 15 17 18 19 21 20 21 21 23 22 19 19 19 18 18 19 19 20 19 19 19 20 20 20 20 20 20 20 20 20 19 19 19 19 19 19 19 18 18 18 18 18
16 15 17 18 18 20 20 20 20 22 22 20 18 18 18 17 18 19 19 20 20 19 19 20 20 21 20 21 20 20 20 20 20 20 20 19 20 19 19 18 18 18 18 18
16 19 19 19 20 20 20 18 20 21 20 19 19 19 19 18 18 18 18 19 20 20 20 20 21 21 21 21 21 20 21 20 20 20 19 19 19 19 19 18 18 18 18 18
18 20 20 19 20 19 19 19 21 21 20 20 20 18 17 19 19 19 18 19 19 20 20 20 21 21 21 21 21 21 21 20 20 20 19 19 20 20 19 19 19 18 18 19
18 19 19 19 20 19 19 19 20 21 20 20 20 19 18 17 16 17 18 19 19 20 21 20 21 21 22 22 22 21 21 20 20 20 19 19 20 20 19 19 19 19 18 18
20 21 19 19 20 20 21 19 15 14 15 17 20 19 19 17 18 18 19 19 19 19 20 21 21 21 22 22 22 21 21 21 20 20 20 19 20 20 20 20 19 19 19 18
18 19 17 19 21 20 19 16 15 16 16 17 16 19 18 18 19 18 18 19 19 20 20 21 21 21 22 22 22 21 21 21 20 20 20 20 20 20 20 20 20 19 19 19
16 17 16 17 17 19 18 17 15 18 15 17 17 18 18 18 19 18 18 20 20 20 20 21 20 21 21 22 22 22 21 21 21 20 21 21 20 20 20 20 20 20 20 20
15 16 16 17 16 16 18 15 15 13 14 16 16 17 18 18 18 18 17 18 19 19 19 20 21 21 21 22 22 22 22 22 21 21 21 21 20 20 21 20 20 20 20 20
14 15 15 15 16 16 15 15 16 13 17 18 16 15 14 15 15 16 16 16 16 17 19 20 20 21 21 21 22 22 22 22 22 22 22 21 21 20 21 20 20 20 20 20
12 12 15 13 12 11 12 12 11 11 11 14 14 14 16 13 13 14 15 15 15 17 19 19 20 20 21 21 22 22 22 22 22 22 21 22 21 21 20 21 21 20 20 20
11 9 9 12 12 12 12 11 9 12 14 9 11 13 13 13 13 13 14 14 15 18 18 19 20 20 20 21 21 22 22 22 22 22 22 22 22 21 21 21 21 21 20 20
13 9 9 12 12 11 11 11 9 7 7 10 13 13 14 12 12 12 12 14 14 15 16 18 19 19 19 20 20 19 20 21 21 21 21 21 22 21 21 21 21 21 21 21
12 8 10 9 10 9 10 11 11 9 10 9 10 13 11 11 12 11 11 12 13 13 14 15 16 16 17 17 18 18 18 19 19 19 20 21 21 22 21 21 21 21 21 21
7 8 9 9 10 11 11 11 12 12 12 13 10 12 11 10 11 10 10 11 11 12 13 13 14 15 16 17 17 18 18 18 19 19 19 20 21 21 21 21 21 21 21 22
6 7 9 9 9 10 10 10 11 12 13 12 12 10 9 11 11 10 11 11 10 11 11 13 14 13 14 15 17 18 18 18 18 18 20 21 21 21 21 21 21 21 21 21
6 5 5 8 7 9 9 10 10 11 11 11 11 10 9 9 10 9 10 11 10 10 11 12 12 13 14 14 16 16 17 18 19 18 18 19 19 21 21 21 20 21 21 21
5 4 3 5 7 9 9 9 10 10 10 9 9 9 8 8 9 9 9 9 10 10 10 11 12 13 13 14 15 16 16 17 17 17 18 19 19 20 20 20 20 20 20 20
4 3 3 5 5 7 10 7 8 8 9 8 8 7 6 7 9 11 10 9 9 9 10 10 11 11 12 13 13 14 15 16 16 16 16 16 17 18 18 19 19 19 20 20
3 2 3 4 5 7 8 6 6 6 7 6 6 5 4 7 7 9 9 9 9 9 9 9 10 11 12 12 13 13 14 15 15 15 16 16 17 17 17 19 19 19 19 19
2 3 4 4 3 5 5 5 6 7 6 5 4 4 3 4 5 6 7 8 8 8 8 9 9 10 11 11 12 12 13 14 15 15 15 15 16 16 17 17 18 18 18 19
3 2 4 4 3 5 5 6 7 5 4 4 4 4 3 2 3 5 7 7 7 9 9 9 9 10 10 10 11 11 12 13 15 15 15 15 16 16 16 17 17 17 17 19
2 2 2 3 3 4 5 5 5 4 3 3 3 3 2 2 2 2 3 7 7 5 8 8 8 9 10 10 9 10 11 11 13 14 16 16 15 15 16 17 16 17 18 19
2 2 -0 2 4 3 4 4 3 3 3 3 3 3 2 2 2 2 2 3 6 6 4 6 7 8 9 10 9 9 9 10 11 14 16 16 17 17 17 15 17 18 19 19
1 2 1 -0 2 4 5 4 3 3 3 4 4 3 3 3 2 2 2 2 3 4 4 4 6 7 8 8 9 9 8 8 10 12 13 14 16 17 18 18 17 19 20 19
2 1 0 1 6 6 6 5 4 4 5 5 4 4 3 2 2 2 1 2 3 3 3 4 4 5 7 7 7 8 8 8 8 10 12 13 15 17 18 18 17 16 18 19

GFSCGP_850_temp_081.txt.gz
Temp
19 20 20 21 22 23 23 24 24 24 24 24 24 24 23 20 19 19 19 19 20 19 19 19 19 20 20 20 20 20 20 20 19 19 18 19 19 19 18 18 18 18 18 18
19 20 21 22 22 22 23 23 24 24 23 24 23 22 23 22 21 19 19 19 20 20 20 19 18 19 20 20 20 20 20 20 19 19 19 19 19 19 19 18 18 18 18 18
20 22 21 22 22 22 23 24 23 24 23 23 23 22 21 20 20 19 20 20 20 20 20 19 19 19 20 20 20 20 20 20 19 19 19 19 19 19 19 19 19 18 18 18
21 22 21 21 22 23 23 23 24 23 24 25 23 26 21 20 20 20 20 20 20 20 20 20 20 19 19 20 21 20 20 20 20 19 19 19 19 19 19 19 19 19 18 18
21 21 21 22 23 23 23 23 24 24 24 24 24 26 22 21 20 21 21 20 19 20 21 21 20 20 21 21 21 21 20 20 20 20 20 19 19 19 19 19 19 19 18 18
21 21 22 23 23 23 23 22 22 22 23 24 25 25 22 21 20 21 20 21 21 19 20 20 20 20 21 21 21 21 21 21 20 20 20 19 19 19 19 19 19 19 19 19
21 20 20 20 22 22 23 23 22 23 23 25 21 24 20 20 20 20 20 20 21 21 20 20 20 20 20 21 21 21 21 21 20 20 20 20 19 19 19 20 20 20 19 19
21 20 20 19 20 22 23 24 24 22 23 25 21 22 20 20 19 19 19 18 20 21 20 21 20 20 20 21 21 22 22 22 21 20 20 20 19 19 19 19 20 20 20 20
20 19 19 18 18 19 21 22 22 22 19 25 23 22 21 20 19 18 17 17 17 17 20 21 20 20 20 21 22 22 22 22 22 21 21 20 20 20 20 20 19 20 20 20
17 18 17 17 18 19 20 19 22 22 22 23 20 20 20 18 17 17 16 15 16 18 18 20 20 19 20 21 22 22 22 22 22 22 21 21 20 20 20 19 20 20 20 20
16 19 17 18 16 15 19 20 19 21 20 23 22 20 18 16 15 15 14 15 15 17 18 19 19 19 19 19 20 22 22 22 22 22 22 21 21 20 21 20 20 20 20 20
15 17 16 15 16 15 15 16 17 23 19 18 22 19 16 16 15 14 14 14 14 15 16 17 18 19 18 19 19 20 21 21 22 22 22 22 22 21 21 21 21 20 20 20
16 15 16 16 17 16 16 16 15 16 18 19 23 19 16 15 15 13 13 13 13 13 15 15 15 16 17 18 18 18 20 19 18 20 21 21 21 21 21 21 21 21 20 20
14 14 16 19 16 15 15 15 15 17 20 18 18 17 16 15 15 14 13 13 13 13 12 14 15 15 15 15 17 18 18 19 19 19 19 20 21 21 21 21 21 21 21 20
14 13 13 13 13 14 14 15 15 16 15 18 17 17 15 14 13 13 13 13 13 13 12 12 13 13 14 15 16 16 16 17 18 18 19 20 21 21 20 20 21 21 21 21
12 12 12 12 12 13 13 14 14 15 15 15 15 16 13 12 12 12 11 12 12 12 11 11 11 12 13 13 14 15 16 17 16 16 17 19 19 20 20 20 21 21 21 21
12 12 12 12 11 12 14 14 14 14 14 15 15 15 12 12 12 10 10 10 9 10 10 10 11 11 11 12 13 14 15 16 17 17 17 17 17 18 19 20 20 20 21 21
10 11 10 12 11 13 13 13 13 13 13 13 13 12 11 10 10 10 9 9 9 9 9 9 10 10 10 12 13 13 14 15 16 16 16 17 17 17 18 18 19 20 20 20
9 11 9 11 13 12 12 11 12 13 13 11 11 10 9 9 11 9 7 7 7 8 8 8 8 9 9 10 13 13 13 14 14 15 15 16 18 17 16 17 18 19 19 20
9 10 11 9 10 12 12 9 8 9 12 8 8 7 8 9 14 13 7 6 7 7 8 9 10 10 9 9 10 12 13 13 14 14 14 15 16 16 17 17 17 17 18 19
9 9 10 10 11 11 10 9 8 11 11 7 7 6 6 8 7 6 5 5 5 6 7 9 10 10 11 11 9 10 12 12 13 13 13 14 15 15 16 16 16 17 17 17
10 9 9 8 10 10 8 8 10 8 6 6 6 5 5 5 4 4 5 5 5 5 5 7 8 11 11 11 10 9 11 11 12 13 13 14 14 14 15 16 16 17 17 17
8 8 9 9 10 7 6 8 6 5 6 5 4 4 4 4 4 4 4 4 4 4 4 4 5 8 11 9 9 10 9 11 12 13 13 13 14 15 16 15 16 16 16 16
6 5 7 7 9 7 6 6 5 4 4 4 4 4 4 4 4 4 4 4 4 3 3 4 4 4 6 8 8 9 9 9 10 11 12 13 13 14 15 16 16 16 17 17
6 5 5 6 6 5 5 5 5 5 4 4 4 4 4 4 4 4 4 3 3 2 3 3 3 4 4 4 6 8 6 8 8 9 10 12 12 13 14 15 17 17 17 16
5 6 6 8 8 8 8 6 7 5 4 4 4 4 4 3 3 3 3 2 2 2 2 3 3 4 4 4 4 6 6 6 7 7 8 9 10 12 13 15 16 17 17 17

GFSCGP_850_temp_084.txt.gz
Temp
22 24 25 26 28 28 29 29 29 28 28 29 28 27 25 22 21 22 22 22 23 23 22 21 21 20 20 19 18 18 17 17 18 17 18 18 19 19 18 18 18 18 18 18
23 24 27 27 26 26 28 28 28 28 28 29 28 28 26 22 22 22 22 21 23 23 23 22 21 21 20 20 19 18 17 18 19 18 18 19 19 19 18 18 18 17 17 18
24 26 26 25 25 26 27 28 28 28 28 29 28 27 27 25 21 21 20 22 22 23 23 22 22 21 21 20 19 18 18 18 19 18 18 18 18 18 18 18 18 18 18 18
25 25 24 25 26 27 27 28 28 27 28 28 29 26 25 24 22 22 22 21 23 22 23 23 22 22 21 21 20 19 18 19 19 19 18 18 19 20 20 19 19 18 17 18
25 25 24 25 26 27 28 27 27 28 28 28 29 29 25 22 22 23 23 21 21 23 23 23 23 22 22 21 21 20 19 19 18 19 18 18 19 20 19 20 19 18 19 18
25 25 26 26 26 26 26 26 26 27 29 27 30 30 26 25 24 25 24 24 23 23 23 23 23 23 22 22 21 20 19 21 20 20 20 19 18 19 20 19 19 19 19 18
24 24 24 24 25 26 26 27 26 26 26 28 30 29 25 23 23 23 23 23 24 23 21 23 23 23 22 22 21 21 19 20 21 20 20 20 19 19 18 18 19 20 20 20
24 22 24 23 25 25 26 28 28 25 27 28 28 26 23 23 22 22 22 22 23 25 24 22 23 23 22 22 21 21 20 20 21 21 21 20 20 19 19 19 20 19 20 20
24 22 22 22 23 23 26 26 29 28 30 29 28 24 24 24 23 20 18 18 21 22 24 24 22 23 22 22 21 21 20 20 21 22 21 21 21 20 19 19 19 19 19 20
23 21 22 22 22 24 25 27 26 27 26 27 26 24 24 22 20 19 17 16 17 22 21 22 24 23 22 22 22 21 20 21 22 21 21 21 21 21 20 18 18 19 19 19
23 24 22 22 22 24 24 25 26 28 27 28 26 25 22 20 17 17 16 15 15 15 19 21 22 22 22 22 22 21 21 20 20 21 20 20 20 21 21 21 19 18 18 18
21 24 23 22 20 20 22 24 25 26 25 27 28 22 21 20 18 18 16 14 13 14 15 17 18 19 20 20 21 21 21 21 20 20 20 20 20 19 19 21 21 20 19 18
20 22 21 21 21 20 22 21 22 24 26 26 27 21 21 20 18 18 16 16 13 13 13 15 16 17 17 18 19 20 21 21 21 20 19 19 19 19 21 20 21 21 20 20
17 21 21 22 22 22 21 20 21 23 26 26 26 20 20 20 19 18 16 16 15 13 12 12 12 13 15 16 17 17 18 19 20 21 20 18 21 21 21 22 20 20 21 21
20 19 19 19 19 20 20 20 20 22 22 24 23 21 20 19 18 17 17 16 16 15 14 13 12 12 12 13 14 15 15 17 17 18 19 20 19 18 20 20 21 21 20 20
18 17 18 18 17 18 19 19 18 19 20 21 23 19 18 17 16 16 15 15 14 14 14 14 14 13 12 12 13 14 15 16 16 16 17 18 18 18 18 18 19 21 20 20
17 17 17 19 17 17 18 20 20 19 19 21 21 19 18 17 16 15 15 14 13 13 13 13 13 13 12 13 12 12 13 15 15 15 16 16 17 17 17 17 17 17 20 19
16 17 17 18 17 17 17 17 18 19 18 18 18 17 16 15 14 13 12 12 12 11 12 12 12 12 12 12 12 11 12 13 14 15 15 16 16 17 17 17 17 17 17 17
15 17 16 16 18 17 16 16 17 18 17 16 17 15 15 14 14 13 11 10 10 10 11 11 11 11 11 11 11 11 12 11 13 13 14 15 15 16 16 17 17 17 17 17
15 15 16 16 15 16 17 14 14 15 17 14 15 14 14 14 18 14 10 10 10 9 9 9 10 10 11 10 11 11 12 11 11 14 13 13 14 15 16 16 16 17 17 17
13 14 14 16 15 17 15 13 13 15 14 12 12 12 12 14 13 10 9 9 9 9 9 8 9 9 10 10 10 10 11 11 11 14 14 13 13 13 14 15 16 16 17 17
14 13 14 15 14 14 13 13 14 13 11 11 11 10 10 10 9 9 9 9 9 8 8 8 8 9 9 9 9 9 10 10 11 13 14 14 13 13 13 14 15 16 16 17
13 15 14 15 15 12 12 13 11 11 11 10 10 9 9 9 9 8 8 8 8 8 8 7 7 7 8 8 8 8 8 8 9 12 13 14 14 14 14 14 14 15 15 15
12 11 12 12 14 12 11 10 10 9 10 9 8 8 8 8 8 8 7 7 7 7 6 6 6 7 7 7 7 7 7 7 8 8 12 12 13 14 14 14 12 14 14 15
12 10 10 11 12 11 11 10 9 8 8 8 8 8 7 7 7 7 7 6 6 5 4 4 4 4 5 5 6 6 6 7 7 8 9 10 11 11 13 13 12 12 13 13
11 11 9 11 12 12 12 9 8 8 8 7 8 7 7 7 7 6 6 5 4 4 3 3 2 3 3 4 5 6 6 6 6 7 8 9 9 10 11 11 13 15 15 15

GFSCGP_850_temp_087.txt.gz
Temp
25 27 27 29 30 32 33 32 30 25 32 30 28 27 24 20 22 23 23 23 24 24 24 23 23 23 22 21 20 19 19 18 19 19 20 19 19 19 19 19 18 18 18 17
26 26 29 30 31 31 31 32 31 29 32 31 31 28 26 25 25 24 23 23 23 24 25 23 23 23 22 21 20 19 19 18 18 19 20 21 19 19 20 19 19 18 18 18
27 28 30 30 30 29 31 32 31 31 30 32 31 28 26 24 25 24 23 23 23 24 25 23 23 23 23 22 20 19 19 18 18 19 19 19 20 19 20 19 19 19 18 18
27 30 29 28 29 29 30 33 32 31 30 30 32 29 28 26 24 24 23 22 23 23 24 23 22 23 23 22 21 19 18 18 18 18 20 19 20 21 20 21 19 19 18 18
27 28 27 27 29 30 31 32 31 31 31 31 31 25 20 28 25 25 23 23 23 23 24 23 23 22 23 23 21 20 18 18 19 18 19 19 20 21 20 21 19 20 19 18
29 28 28 29 30 30 30 31 30 30 31 30 32 31 20 27 27 27 25 23 24 23 23 24 23 23 23 24 22 21 19 19 18 18 19 19 20 20 20 20 20 20 20 19
27 27 28 29 29 29 29 29 28 27 29 30 33 31 22 27 27 28 26 26 26 24 23 23 23 23 23 24 23 22 20 19 18 18 18 19 18 19 19 20 20 21 20 21
25 25 27 28 29 28 28 29 29 27 29 30 33 28 26 27 26 25 24 25 25 27 25 23 24 23 23 24 24 23 21 19 18 19 19 18 18 19 20 20 21 21 21 22
26 26 27 27 28 28 28 28 32 31 32 32 30 26 26 26 25 21 18 20 23 26 26 25 24 23 23 24 23 23 22 20 19 19 19 19 19 20 20 21 20 20 21 19
26 25 26 26 26 27 27 30 29 30 29 29 29 26 27 25 23 19 17 18 19 22 25 25 24 23 20 23 23 23 22 21 20 20 19 19 19 19 20 20 19 20 21 20
27 27 25 25 26 27 27 27 29 31 31 31 27 27 27 23 21 18 16 15 15 17 18 20 19 20 21 23 23 23 23 22 21 20 20 20 20 19 19 19 19 19 20 20
26 26 25 25 26 26 27 28 29 28 28 30 28 24 25 24 21 18 16 14 15 16 16 15 16 17 19 21 21 19 23 23 22 21 21 20 20 20 20 19 19 19 19 19
24 25 24 24 25 25 25 27 27 29 30 28 29 23 24 23 22 19 16 16 14 15 16 14 14 18 16 15 16 19 21 19 23 22 22 21 21 20 20 20 19 19 18 19
19 25 25 23 25 26 25 25 26 27 27 28 28 23 23 23 20 18 17 16 15 14 15 15 14 13 15 16 16 18 19 20 20 20 22 22 20 20 20 20 19 19 19 18
23 22 23 23 23 25 26 25 25 25 27 27 24 24 24 23 22 18 17 17 16 16 15 14 14 13 13 14 15 16 17 18 19 20 20 20 20 19 19 19 18 19 19 19
23 22 22 22 22 23 23 23 23 25 25 26 25 22 22 21 20 20 19 17 16 15 16 16 15 15 14 13 13 14 15 16 17 18 19 18 19 19 18 19 18 18 20 19
21 22 21 21 22 22 22 23 23 24 24 26 24 22 21 21 20 19 18 17 16 15 15 15 15 15 15 14 14 13 14 14 15 16 17 18 19 18 18 18 18 18 18 18
20 20 21 21 21 19 22 22 24 23 23 24 22 22 21 20 18 16 16 15 15 14 14 14 14 14 14 14 13 13 14 13 14 14 15 15 16 17 17 18 18 18 18 18
20 20 21 20 21 21 20 20 21 22 21 22 21 20 19 18 17 15 14 14 13 13 13 13 13 13 13 13 13 13 14 14 13 12 14 15 15 15 16 17 17 18 18 18
20 19 20 20 19 20 21 20 19 21 20 19 20 19 18 18 19 17 14 13 13 13 12 12 12 13 13 12 12 12 13 13 13 12 11 11 14 14 14 15 16 17 17 17
17 17 18 19 18 20 19 17 17 17 18 17 18 17 17 18 15 13 13 13 12 12 11 11 11 12 11 11 11 11 12 12 11 11 11 11 12 15 15 14 14 16 16 17
17 16 18 18 18 17 17 17 17 16 15 15 15 14 14 14 13 13 12 12 11 11 11 11 11 11 10 10 10 10 10 10 10 10 10 11 11 12 13 15 15 15 15 15
16 18 17 19 17 16 16 16 15 15 14 14 14 13 12 13 12 11 11 11 11 10 10 10 9 9 9 9 9 9 9 9 9 9 10 10 11 11 11 15 15 13 14 14
16 16 15 15 17 15 15 14 14 14 13 13 12 12 12 12 11 11 10 10 9 9 8 8 7 7 7 7 7 8 8 8 8 9 9 10 11 11 12 12 13 14 15 15
15 15 14 15 16 15 14 13 13 12 12 12 11 11 11 10 11 10 10 9 8 7 7 7 6 5 5 5 5 6 7 8 8 9 9 10 11 12 12 13 13 12 14 13
15 15 13 12 15 14 15 13 12 11 11 11 11 10 10 9 10 9 9 8 7 6 6 6 5 5 4 4 4 4 5 6 6 8 9 10 10 11 12 12 13 14 13 15

GFSCGP_850_temp_090.txt.gz
Temp
25 25 26 28 30 31 32 32 30 27 28 29 26 24 23 22 24 25 25 25 25 25 25 24 24 24 22 21 20 20 20 19 19 19 20 19 20 20 19 18 18 18 19 18
26 26 29 30 31 30 31 32 27 25 26 19 25 24 25 23 21 21 22 24 24 24 25 24 24 24 23 21 20 20 20 19 19 20 20 20 19 19 19 19 18 18 19 18
27 28 30 30 30 30 31 32 29 27 26 21 20 21 24 23 23 23 23 24 24 24 24 24 24 24 23 21 20 20 19 19 19 20 19 19 19 19 18 19 19 19 19 18
28 30 30 30 30 31 31 32 30 25 27 28 29 24 24 24 23 24 24 23 23 24 24 24 24 24 23 22 21 20 19 19 20 19 20 20 20 20 20 20 19 19 19 19
27 29 29 29 30 32 31 33 30 30 31 32 31 27 20 17 25 24 24 23 22 23 24 25 24 23 23 22 21 20 19 19 20 20 20 19 20 19 20 19 20 19 20 19
29 29 30 30 31 31 32 32 32 31 32 30 28 29 22 17 19 25 25 24 24 24 24 24 23 23 23 23 21 20 19 19 19 20 20 20 18 20 19 19 20 19 20 20
28 29 30 30 29 31 31 30 29 28 29 29 31 29 22 18 17 16 24 25 24 24 24 24 23 23 23 23 22 21 20 20 20 20 20 20 19 18 19 20 21 19 20 19
26 26 29 30 30 29 30 30 29 27 28 30 32 27 23 20 19 22 25 24 23 22 23 24 23 23 23 23 22 22 21 21 21 20 21 20 21 20 19 20 20 21 20 20
27 27 30 30 30 29 29 29 32 31 31 31 28 26 25 25 23 22 22 21 21 20 22 24 24 23 23 24 23 22 23 22 22 21 20 20 21 20 20 20 21 21 20 20
26 25 29 28 28 28 28 30 28 30 28 29 27 25 25 25 21 20 19 18 18 18 20 22 21 22 23 22 24 23 22 23 22 21 20 20 20 21 21 20 20 20 21 20
26 26 26 27 27 26 27 27 29 30 31 29 26 25 27 24 21 19 18 18 18 16 16 17 18 17 20 20 22 19 18 23 21 20 20 19 20 20 21 21 21 21 20 19
26 26 25 26 28 28 29 29 29 28 28 27 21 19 21 22 20 18 17 17 17 15 14 15 15 17 18 20 19 16 16 20 21 21 20 20 20 19 19 20 21 21 21 21
23 26 25 25 26 27 27 28 29 30 30 26 24 23 21 21 19 18 17 16 16 16 15 14 15 16 17 15 17 17 17 19 18 20 21 20 20 20 20 20 20 19 20 21
21 24 23 21 25 27 26 27 28 28 27 28 23 23 20 19 19 18 17 16 16 16 15 14 14 15 15 16 16 16 16 16 18 19 18 20 21 20 20 20 20 20 19 19
23 22 24 23 25 26 27 27 28 26 27 22 22 23 21 20 19 18 17 17 17 16 16 15 15 14 14 14 14 15 16 16 18 17 18 20 18 20 20 20 20 19 19 19
24 22 23 23 24 24 25 26 26 26 27 25 20 19 20 20 19 18 17 17 17 17 17 16 16 16 15 14 14 15 15 15 16 16 16 18 20 18 19 20 19 19 19 19
22 22 22 21 24 24 22 25 24 25 26 24 21 17 20 21 20 20 18 17 17 16 16 16 15 15 15 14 14 14 15 15 16 15 15 16 17 17 18 18 18 19 18 19
21 21 21 21 23 20 24 25 26 25 26 25 23 22 21 21 19 19 18 17 16 16 15 15 15 14 14 14 13 14 14 14 15 16 16 15 15 16 16 17 18 18 18 18
22 21 21 20 20 22 23 22 24 24 24 24 22 21 20 19 17 17 16 16 15 15 14 14 14 14 13 13 13 13 14 14 13 13 13 15 16 16 16 17 17 18 18 18
21 21 20 21 20 19 21 23 22 24 22 23 22 21 20 19 18 17 15 15 15 14 13 13 13 14 13 12 13 12 13 13 12 12 12 12 13 15 16 16 16 16 17 17
18 19 19 20 20 21 21 20 20 20 20 22 21 21 20 19 17 15 15 14 14 13 13 12 12 12 12 11 11 11 11 11 11 11 13 12 13 14 13 14 15 16 16 16
18 17 18 19 19 18 19 19 19 18 19 19 19 19 16 15 14 14 14 13 13 13 12 12 12 11 11 10 10 10 10 10 10 10 11 13 13 13 14 14 15 15 16 16
17 18 18 17 17 18 18 17 17 17 16 16 16 16 16 15 14 14 13 12 12 11 11 11 10 10 9 9 9 8 8 9 9 9 10 11 12 13 13 13 14 14 14 15
18 18 17 17 17 17 17 16 16 16 16 15 15 14 14 14 13 13 12 11 11 9 9 9 8 8 7 7 6 7 7 7 8 8 9 9 10 11 12 12 13 14 14 14
16 17 16 16 17 16 16 15 15 15 14 14 14 13 13 13 12 12 11 10 9 8 8 7 7 7 7 6 5 5 5 6 6 7 8 9 10 11 11 12 13 13 13 13
16 16 15 14 16 16 16 15 14 14 13 13 13 12 12 12 11 10 10 9 8 8 7 7 6 6 5 5 5 4 4 4 4 5 6 7 8 9 10 10 11 12 12 13

GFSCGP_850_temp_093.txt.gz
Temp
25 21 20 21 23 26 27 27 25 20 22 19 21 21 21 21 23 24 24 25 25 25 25 24 23 22 22 21 21 21 20 20 19 19 19 19 19 19 19 19 19 19 19 19
22 20 23 25 26 27 27 27 21 21 21 21 20 21 21 21 23 24 24 25 25 25 25 24 23 22 22 21 21 20 20 20 19 20 19 20 19 19 19 19 19 18 18 19
21 23 25 26 26 27 27 26 24 23 21 19 20 19 21 21 24 23 23 24 25 25 24 24 24 23 22 21 21 20 20 20 20 19 19 19 20 19 19 18 18 19 19 19
23 25 26 26 26 27 24 28 28 23 23 21 22 18 17 20 20 22 22 23 24 24 24 24 24 23 22 21 21 20 19 19 20 18 19 19 20 20 20 19 19 19 19 18
23 25 25 26 27 28 27 28 27 26 24 22 21 19 19 19 20 21 22 23 24 24 24 24 24 23 23 22 22 21 20 19 20 19 18 20 19 20 19 18 19 20 19 19
25 28 27 27 29 29 29 29 27 25 21 22 24 22 18 18 20 20 22 23 23 23 24 24 24 23 23 22 22 21 20 20 20 19 19 19 19 19 19 19 19 19 20 19
25 26 27 29 27 27 27 27 22 23 21 22 24 23 18 19 18 19 19 20 23 23 23 24 24 23 23 22 21 21 20 20 20 19 20 19 19 19 20 20 20 20 19 19
21 22 26 28 27 25 25 24 21 23 23 24 25 18 19 19 20 19 19 20 18 21 22 23 23 23 23 21 21 22 21 20 20 20 20 20 19 20 20 20 20 19 20 20
21 23 27 28 28 27 25 24 25 25 25 24 21 19 18 20 18 18 18 21 17 18 21 23 22 24 23 22 22 22 22 22 21 21 21 20 20 20 20 20 20 20 20 20
23 21 25 28 28 28 26 25 22 22 24 24 20 20 19 19 20 19 17 16 15 17 23 22 21 21 22 20 21 21 22 21 22 22 21 21 20 20 20 20 20 20 20 20
22 21 22 26 25 25 24 22 24 23 23 22 19 19 17 18 18 18 17 15 15 15 16 17 18 19 19 19 18 20 20 20 19 21 22 21 21 20 20 20 20 20 20 20
21 20 20 23 26 26 25 24 23 20 22 21 18 17 16 18 17 17 16 14 14 15 15 16 16 18 19 19 17 19 19 19 19 18 19 21 21 20 20 20 20 20 20 20
19 18 19 21 24 25 24 24 24 23 21 22 21 16 16 17 17 16 16 14 14 14 14 14 15 16 18 19 17 17 16 19 17 16 19 19 19 20 20 21 21 21 20 21
19 20 18 16 20 22 24 25 25 24 20 20 19 17 17 16 16 16 15 15 14 14 13 14 15 16 16 15 16 17 17 18 18 17 18 19 20 18 20 20 20 20 20 20
18 18 19 20 22 23 23 24 25 25 22 20 19 18 17 17 16 16 15 15 15 15 14 15 14 14 15 15 15 16 16 18 17 16 17 17 19 19 20 20 18 19 20 20
21 16 19 19 23 23 22 25 26 25 22 19 18 17 17 17 17 17 16 16 16 15 15 15 14 14 14 14 14 14 15 15 15 16 16 18 16 17 19 19 17 18 18 18
19 17 18 17 19 22 20 22 23 23 22 20 17 15 16 17 17 17 17 16 16 15 15 14 14 14 14 13 14 14 14 14 15 15 16 16 16 17 17 16 19 19 19 19
19 17 16 17 18 18 21 21 22 24 23 18 16 16 17 18 17 17 16 16 15 15 15 14 14 13 13 14 14 13 13 13 13 14 14 15 16 16 16 16 17 18 19 19
18 17 16 16 16 18 22 22 21 21 19 18 17 19 18 17 17 16 16 15 15 14 14 14 13 13 13 13 13 13 12 13 13 13 13 13 14 15 16 16 16 17 17 17
17 16 15 15 16 17 18 19 20 22 17 19 18 18 17 17 15 13 15 15 14 14 13 13 13 13 13 12 12 12 12 12 13 13 14 15 15 15 15 16 16 16 16 17
15 15 15 14 15 17 20 20 20 18 16 19 18 17 17 13 16 15 15 14 13 13 13 12 12 11 11 11 11 11 11 11 11 12 13 13 14 14 15 15 16 16 16 17
15 14 14 15 16 16 18 19 17 16 17 17 17 16 14 15 15 14 14 13 13 13 12 11 11 10 10 10 10 10 10 9 10 10 11 12 12 13 13 14 15 15 15 16
14 13 13 13 13 16 17 16 17 17 16 16 15 15 14 14 14 13 13 13 12 11 11 10 10 9 9 9 9 8 8 9 10 10 10 10 10 11 12 12 13 13 14 14
16 17 13 13 15 16 16 16 16 16 15 15 15 15 15 14 13 13 12 11 10 10 9 8 8 8 7 8 8 7 7 8 8 9 9 8 9 9 10 11 11 12 12 13
14 15 13 13 14 15 16 15 15 15 15 15 14 14 14 13 13 12 11 10 9 8 8 7 7 7 6 6 6 7 8 8 8 9 9 8 8 9 9 10 10 11 11 11
12 10 9 10 15 15 15 15 15 14 14 14 13 13 13 12 12 11 10 9 8 8 7 7 6 6 6 6 6 5 6 7 8 8 8 8 9 9 8 8 10 11 10 10

GFSCGP_850_temp_096.txt.gz
Temp
22 19 19 20 20 21 22 24 20 19 19 19 19 20 20 21 22 23 24 24 23 22 22 22 22 21 21 20 21 20 20 20 19 20 19 19 19 19 19 19 19 18 18 19
19 19 21 22 22 23 22 24 20 20 19 19 19 20 20 21 19 22 24 23 24 22 22 22 21 21 21 21 21 20 20 20 19 19 19 19 18 19 19 18 18 18 19 19
18 21 23 23 22 22 22 23 21 21 19 19 20 18 18 21 21 23 23 24 24 23 23 22 22 21 21 21 21 21 20 20 20 19 19 19 19 19 19 19 19 19 19 18
20 22 23 22 22 23 20 24 24 20 20 19 20 18 17 18 20 23 23 23 24 24 23 23 22 22 22 22 21 21 20 20 20 19 19 19 19 19 19 19 19 18 18 19
20 23 22 22 23 23 24 27 25 22 20 20 18 18 17 17 19 21 21 23 23 24 24 23 22 23 22 22 22 21 20 20 20 19 19 19 19 19 19 19 19 18 18 19
21 25 23 23 25 25 27 25 23 20 19 19 19 20 18 18 19 21 22 22 23 23 23 23 23 23 22 22 22 21 21 20 19 20 19 19 19 19 19 19 19 19 18 19
21 22 24 25 24 24 26 20 18 20 19 20 20 20 19 20 21 21 22 22 22 22 23 23 23 22 22 22 22 21 21 20 19 19 19 19 19 20 20 19 19 19 19 19
19 19 23 25 23 23 24 21 18 21 20 21 22 21 19 20 21 21 21 21 20 22 22 21 22 23 23 22 22 21 21 20 20 19 19 19 19 20 20 20 19 20 20 19
19 20 23 25 26 24 24 22 21 21 22 21 18 17 19 17 17 18 18 18 18 20 22 21 22 22 22 22 22 22 22 21 20 20 19 19 19 19 20 20 19 20 20 20
20 20 21 23 26 24 23 23 22 18 22 21 18 17 17 16 17 17 16 15 16 16 19 20 21 21 21 21 21 20 21 21 20 20 20 20 20 20 20 20 20 20 20 20
19 18 19 22 23 22 22 21 21 19 19 19 18 17 18 17 17 16 15 15 15 16 16 17 20 20 20 20 20 20 20 20 20 19 20 20 20 20 20 20 19 19 20 20
18 15 17 21 21 24 22 22 19 19 22 17 15 17 17 16 16 15 14 14 15 16 15 16 17 17 19 19 19 17 19 19 20 19 19 19 19 19 20 20 20 19 19 20
18 15 15 18 19 20 22 23 20 18 19 19 17 17 16 15 15 15 14 14 14 15 15 15 15 16 19 21 17 17 16 17 19 19 19 19 19 19 19 20 20 19 19 19
17 14 16 16 18 19 20 21 22 18 18 16 15 16 16 15 15 15 14 13 13 14 14 14 14 14 15 15 16 18 16 17 17 17 18 19 19 19 19 19 19 19 19 20
17 15 17 18 19 20 21 21 21 20 19 19 16 17 16 14 15 15 14 14 13 13 13 14 14 14 15 15 15 16 16 17 17 17 16 17 18 19 19 20 19 19 19 19
15 18 16 17 19 19 20 20 21 22 19 17 17 16 15 15 15 15 15 14 14 14 13 13 14 14 14 14 14 15 15 16 16 16 16 18 18 18 18 18 18 19 19 18
15 14 16 16 17 18 17 18 20 21 19 17 16 16 16 16 16 15 15 15 14 14 13 13 13 13 13 13 14 13 13 14 15 15 16 17 18 17 17 17 17 18 20 20
15 14 12 15 16 16 18 17 20 18 17 16 16 16 16 16 16 15 15 15 14 14 14 14 13 13 13 12 13 13 13 14 14 15 15 15 15 16 16 16 15 17 19 20
15 11 13 13 14 17 19 17 18 18 14 16 16 16 16 15 15 14 15 15 14 14 13 13 13 13 13 12 12 12 12 13 13 13 13 13 13 13 14 15 16 16 17 18
13 11 12 12 14 15 17 19 20 17 14 16 17 16 15 15 13 13 14 14 14 13 13 13 13 13 13 12 12 12 12 12 12 12 13 13 13 14 14 14 15 15 15 15
11 11 12 13 13 15 15 17 20 15 14 15 16 15 15 14 14 14 14 14 14 13 13 12 12 12 12 12 12 12 12 12 12 12 12 12 13 13 13 14 14 14 15 15
12 11 11 11 12 15 16 16 14 14 15 16 15 15 16 15 14 14 13 13 12 12 12 12 11 11 10 10 10 10 10 10 10 11 12 12 13 13 14 14 14 14 14 14
12 11 10 11 10 13 14 14 15 14 16 15 15 14 14 13 13 13 12 12 12 11 11 11 11 10 10 9 10 10 9 9 9 10 10 10 11 11 11 12 13 13 13 13
10 13 10 10 12 14 15 15 15 15 14 14 14 13 13 13 13 12 12 11 11 11 10 10 10 10 9 8 9 9 10 10 10 9 9 9 9 10 10 10 10 11 11 11
11 12 10 10 13 14 15 15 15 15 15 14 14 14 14 13 12 12 11 11 10 10 10 9 9 8 8 7 7 7 8 8 9 9 9 9 9 9 10 10 10 10 10 9
10 9 8 7 11 11 14 15 15 14 14 14 14 13 13 13 12 11 11 11 10 9 8 8 8 7 7 7 7 7 8 8 8 8 8 9 9 9 9 10 11 9 9 10

GFSCGP_850_temp_099.txt.gz
Temp
20 18 18 19 20 21 21 23 20 19 18 18 19 20 20 20 21 21 22 22 22 22 20 22 21 20 20 20 19 19 19 19 19 19 19 19 19 19 19 19 18 18 18 18
17 18 19 21 21 22 22 23 19 19 18 19 21 20 20 19 21 22 22 22 22 20 20 21 21 21 20 20 20 19 19 19 19 19 19 19 19 18 18 18 18 18 18 19
18 20 21 22 22 21 21 22 19 20 19 19 19 19 19 20 21 20 22 23 22 21 21 20 21 21 20 20 20 20 20 20 19 19 19 19 19 18 18 18 18 18 18 19
19 21 22 21 21 21 21 21 24 19 18 18 19 20 17 18 18 18 21 22 22 21 22 22 21 21 20 21 20 20 20 20 19 19 19 19 19 19 19 19 18 18 18 18
19 21 21 21 21 21 21 23 24 20 18 17 18 19 18 17 18 18 21 22 22 21 22 21 21 21 21 21 21 21 20 20 20 20 19 19 19 19 19 19 18 18 18 18
20 22 22 21 22 22 23 21 18 16 17 18 18 19 19 16 19 19 22 22 22 21 20 22 22 22 21 21 21 21 20 20 20 20 19 19 19 19 19 19 19 19 18 18
19 21 22 23 23 22 22 18 17 18 18 19 17 18 19 18 20 21 21 21 21 22 20 20 20 21 21 21 21 21 21 20 20 20 20 19 19 19 19 19 19 19 19 18
17 19 21 22 21 21 19 19 17 20 18 19 19 19 18 17 21 21 22 22 22 20 20 21 21 21 21 22 22 21 21 20 20 20 20 19 19 19 20 20 19 19 19 19
16 18 22 23 23 22 22 20 20 18 19 19 17 17 18 18 18 19 19 18 18 19 20 20 21 21 21 21 22 22 21 21 20 20 20 19 19 19 19 19 20 19 19 19
18 18 20 22 24 22 22 20 20 17 19 19 17 17 16 17 17 16 15 16 16 18 20 19 19 20 20 20 21 21 20 20 20 19 19 19 19 19 19 19 19 19 19 20
17 16 20 20 21 21 21 20 17 17 16 17 16 17 18 16 16 16 15 15 15 16 18 19 18 19 19 19 20 20 20 19 19 19 19 19 19 19 19 19 19 19 19 20
17 14 17 20 20 19 21 20 18 17 19 14 16 16 17 16 15 15 14 15 15 15 16 16 17 17 17 19 20 19 20 19 19 19 19 19 19 19 19 19 19 19 20 20
18 15 16 18 19 18 19 20 18 16 15 16 17 16 16 15 15 15 14 14 15 15 15 15 16 16 17 18 19 17 19 18 18 18 19 19 19 19 19 19 19 19 19 19
16 13 15 15 17 17 20 20 20 18 17 14 15 16 16 16 15 14 14 13 14 14 14 15 15 16 17 18 18 17 18 17 16 17 18 18 18 18 19 19 19 19 19 18
15 15 16 17 18 18 20 19 20 20 18 19 15 17 16 15 15 14 13 13 13 13 13 14 14 15 15 15 15 16 17 15 15 16 16 17 18 17 18 19 19 19 19 19
13 14 16 17 18 18 18 18 19 18 16 16 17 16 16 15 14 14 13 13 13 12 12 12 13 14 14 14 15 15 16 17 16 16 15 16 15 16 17 16 17 17 19 18
13 13 13 16 16 18 16 17 16 18 17 17 17 16 15 14 14 14 14 14 13 13 13 13 13 13 13 14 14 14 14 14 15 14 14 14 14 15 17 16 16 17 18 18
14 12 11 13 15 15 17 17 17 16 15 15 14 15 15 14 14 14 14 13 13 13 13 13 12 12 12 12 13 13 13 13 13 13 14 14 15 15 14 15 15 16 17 18
12 10 10 13 13 16 18 18 17 16 14 15 15 15 15 15 14 13 13 14 13 13 13 13 13 12 12 12 12 13 12 12 13 12 12 13 13 14 15 15 15 15 15 16
11 10 12 11 14 14 16 16 17 16 15 16 15 15 15 14 12 13 14 14 13 13 13 13 12 12 12 12 12 13 13 13 13 13 13 12 12 12 12 13 14 14 15 15
9 8 11 11 13 13 15 14 17 17 14 16 15 14 14 13 13 13 13 13 13 13 13 13 12 12 12 11 12 12 13 13 13 13 13 13 13 13 13 13 14 14 14 14
11 10 9 9 11 14 14 15 17 13 14 15 15 14 13 14 13 12 13 13 13 13 12 12 13 12 11 11 11 12 12 12 12 12 12 13 13 13 13 14 14 14 14 14
11 10 9 9 9 12 13 12 13 14 13 13 14 13 14 13 13 12 12 12 12 12 12 12 12 12 11 11 11 11 10 11 11 11 11 11 11 11 12 12 12 13 13 13
11 11 9 10 12 13 14 14 14 14 14 13 14 13 13 13 12 12 12 12 12 11 11 11 11 11 11 10 10 10 10 9 9 10 10 10 10 10 10 10 11 11 11 11
9 10 9 9 12 13 14 14 15 14 13 13 13 12 13 13 11 12 11 11 11 11 11 10 10 10 9 9 9 9 8 8 8 8 9 9 10 10 9 10 10 10 10 10
8 8 7 7 10 10 13 14 14 15 14 14 13 11 11 12 12 11 11 11 11 11 10 10 9 9 8 8 8 8 8 7 7 7 8 8 8 9 9 9 9 9 9 9

GFSCGP_850_temp_102.txt.gz
Temp
19 16 16 18 19 20 22 21 20 19 18 18 18 19 19 19 21 20 20 19 20 20 21 21 20 20 19 19 19 19 19 19 19 19 19 18 18 18 18 18 18 18 18 18
17 16 18 19 20 20 20 20 18 18 18 18 18 19 20 19 19 18 20 20 20 21 21 20 20 20 20 20 19 18 19 19 19 19 19 19 18 18 18 18 18 18 18 18
17 20 19 20 20 21 20 21 18 19 18 17 18 18 18 19 20 19 19 20 21 21 20 20 20 20 20 20 20 19 19 19 19 19 19 19 18 18 18 18 18 18 18 18
19 20 20 21 20 20 20 21 21 19 18 18 18 18 17 19 18 20 20 21 19 20 21 21 21 21 21 20 20 20 19 19 19 19 19 19 19 19 19 18 18 18 18 18
19 20 20 20 21 20 22 22 21 19 17 18 18 18 18 17 18 17 17 19 20 20 21 21 22 22 21 20 20 20 19 19 19 19 19 19 19 19 18 18 18 18 18 18
19 21 21 20 21 21 21 19 17 16 16 18 18 19 17 16 18 18 18 19 21 20 21 22 22 22 21 21 20 20 20 19 19 19 19 19 19 19 19 18 18 18 18 18
19 20 21 22 21 21 22 18 15 16 16 17 16 18 18 17 18 20 19 20 21 21 20 21 20 21 21 21 21 20 20 20 19 19 20 19 19 19 19 19 19 19 19 19
16 18 19 20 20 19 18 18 16 18 16 18 17 18 19 17 18 20 20 20 21 21 21 22 21 21 21 21 21 20 20 20 20 19 20 20 19 19 19 19 19 19 19 19
16 18 20 21 20 21 20 18 19 17 17 17 16 17 17 17 18 19 19 19 19 21 21 21 22 21 21 21 20 20 20 20 20 19 19 19 19 19 19 19 19 19 19 19
17 17 19 21 22 21 20 19 19 15 18 19 17 16 17 17 17 16 16 17 18 19 20 20 21 21 20 20 20 20 20 20 19 19 19 19 19 19 19 19 19 19 19 19
16 16 18 20 20 19 20 19 16 15 15 16 16 16 17 16 17 16 15 16 18 18 19 19 20 21 19 19 20 19 19 20 18 18 19 19 18 19 19 19 19 19 19 19
16 13 16 19 20 18 20 19 17 17 17 14 15 16 16 16 16 15 15 15 15 17 18 19 19 19 19 18 18 17 18 19 19 19 18 18 18 18 18 18 18 18 18 19
16 13 15 18 18 18 18 19 16 14 14 15 17 16 16 15 15 15 15 15 15 16 15 16 17 17 17 16 16 16 17 18 19 18 18 18 18 18 19 19 19 18 19 19
16 12 15 15 16 15 18 18 19 16 16 14 15 16 16 15 15 14 14 14 14 14 15 15 16 16 16 17 16 15 16 16 15 17 17 17 17 17 18 18 19 19 18 19
14 15 16 17 17 17 18 16 17 20 17 19 16 16 16 15 15 14 13 13 13 14 14 15 15 15 16 16 17 16 15 15 15 15 16 16 16 17 18 18 18 18 19 18
11 14 16 17 17 17 17 17 16 17 16 16 15 15 14 15 14 14 13 13 13 13 13 14 15 15 15 15 15 15 15 16 15 16 16 17 16 16 16 17 17 17 18 18
12 12 12 16 14 17 15 16 14 15 16 15 16 15 14 14 14 14 13 13 12 12 13 13 14 14 14 14 14 15 15 15 15 15 15 15 15 15 16 16 18 17 18 17
15 11 10 13 14 15 16 17 16 15 14 14 13 15 15 14 13 13 13 13 12 12 12 12 13 13 13 13 14 14 14 14 14 14 14 14 14 15 15 16 16 15 15 15
11 12 11 13 12 15 17 16 15 15 14 14 14 14 13 13 13 12 13 13 13 12 12 12 12 12 12 12 12 13 13 13 13 13 13 13 14 14 15 16 16 16 14 14
11 9 13 10 14 13 15 16 15 15 14 15 14 14 13 14 13 12 12 13 13 13 12 12 12 12 12 12 12 12 12 12 12 12 12 12 13 13 14 14 13 14 14 15
9 8 10 10 12 12 14 13 15 17 14 15 15 14 13 12 13 12 13 12 12 12 13 12 12 13 13 12 12 13 13 13 12 12 12 12 13 13 13 13 13 13 13 13
11 10 9 8 11 15 13 15 17 13 15 15 14 13 13 12 12 12 13 12 12 12 12 12 12 12 12 12 12 13 13 13 13 12 12 12 13 13 12 12 13 13 13 13
11 9 9 9 9 11 13 12 13 12 13 13 14 13 13 12 12 12 11 12 12 12 12 12 12 12 12 12 12 12 12 12 11 11 11 12 12 12 12 12 12 12 12 12
10 9 8 10 11 12 13 13 14 14 13 13 13 13 12 11 11 11 11 11 11 11 11 11 11 11 11 10 10 10 11 11 11 11 11 10 10 10 11 11 11 12 12 12
8 9 8 8 11 12 13 13 12 13 13 13 12 12 12 12 11 11 11 11 11 11 11 10 10 10 10 9 9 9 10 10 10 10 10 10 10 10 10 10 10 10 10 10
8 8 7 8 10 10 12 12 12 13 14 13 13 11 11 12 12 11 10 10 11 11 11 11 11 10 10 9 9 9 9 8 9 9 9 9 9 9 9 9 9 9 9 9

GFSCGP_850_temp_105.txt.gz
Temp
20 21 21 23 24 24 24 24 21 20 19 19 19 20 17 15 18 19 19 19 20 20 20 19 18 20 20 19 19 18 19 19 18 18 18 18 18 18 18 18 18 18 18 18
21 21 22 23 23 24 24 23 21 19 18 19 18 19 19 17 18 21 20 20 20 20 20 19 20 20 20 20 19 19 19 19 19 19 19 19 18 18 18 18 18 18 18 18
22 23 22 22 23 24 23 24 21 22 19 19 18 18 18 19 19 19 19 20 20 21 20 19 20 20 20 20 20 19 19 19 19 19 19 19 18 18 18 18 18 18 18 18
22 22 22 22 23 24 23 24 22 20 21 22 20 18 18 19 17 17 20 19 21 21 21 20 21 20 21 21 20 19 19 18 18 19 19 19 19 18 18 18 18 18 18 18
22 22 22 22 23 23 23 24 22 22 21 21 19 19 20 19 19 18 19 21 21 21 21 20 20 22 21 21 21 20 19 19 18 18 19 19 19 18 18 18 18 18 18 18
22 21 23 24 24 22 22 23 21 21 21 21 23 21 20 19 21 21 19 19 21 21 20 20 22 21 21 21 20 20 19 19 19 18 18 19 19 19 19 19 18 18 18 18
22 22 23 23 23 22 23 23 22 21 21 22 21 21 25 21 21 22 21 20 20 21 21 20 19 20 22 21 21 20 20 20 19 19 18 18 19 19 19 19 18 19 19 18
21 21 23 23 24 24 23 24 24 22 22 23 20 22 24 21 21 21 21 21 20 20 21 20 20 21 22 22 21 20 20 20 19 19 19 18 19 19 19 19 19 19 18 18
21 21 22 22 24 25 23 23 25 24 22 24 22 21 21 20 21 20 21 20 20 20 20 20 19 20 22 22 22 21 20 20 19 19 19 19 19 19 19 19 19 19 19 18
21 21 22 23 23 22 24 26 24 24 23 23 22 21 23 20 20 22 21 20 20 20 19 19 21 20 21 22 21 21 20 20 19 19 19 18 19 18 19 19 19 19 19 19
20 21 22 22 23 24 23 24 23 25 23 25 24 24 21 21 20 20 20 20 19 19 19 20 20 21 20 21 20 20 20 20 20 19 19 18 18 18 19 18 18 19 19 19
19 21 22 23 22 21 23 25 25 25 23 22 23 24 19 20 19 18 17 17 18 19 19 20 20 21 20 20 20 19 19 19 19 19 19 18 18 17 18 18 18 18 18 18
19 19 21 22 23 21 22 22 22 23 24 23 25 24 18 18 17 17 16 16 16 16 18 19 19 19 19 18 18 18 18 18 19 19 19 19 18 17 18 18 18 18 18 19
18 19 21 22 21 20 21 21 21 24 25 25 25 21 18 17 17 16 15 15 15 15 17 16 17 17 18 18 17 16 16 17 18 17 18 18 18 17 17 18 18 19 19 19
18 20 19 20 19 20 20 20 20 23 23 25 24 22 21 17 17 15 14 14 14 15 15 15 16 16 16 17 17 16 16 15 15 16 15 16 16 17 17 17 18 18 18 19
17 18 18 20 20 21 20 20 21 21 21 22 22 22 21 17 16 14 14 14 13 14 14 15 15 16 16 15 15 14 16 15 16 15 15 15 15 16 16 17 17 18 18 18
17 17 18 20 18 20 21 19 19 18 19 20 22 21 19 16 15 14 14 14 13 13 14 14 15 15 15 14 14 14 14 15 15 15 15 15 15 15 15 16 16 17 17 18
17 16 16 18 19 19 19 19 19 18 18 18 18 18 18 16 15 14 14 13 12 12 13 13 14 14 15 15 15 15 15 15 15 15 14 15 15 15 15 15 16 17 16 16
15 17 17 18 18 18 19 18 18 19 19 17 17 16 15 14 13 12 13 13 13 12 12 13 13 14 13 13 14 14 14 14 14 14 14 14 14 14 14 14 14 15 16 15
16 16 18 16 17 17 17 17 16 17 19 17 16 15 14 13 14 12 11 12 11 12 12 12 12 12 12 12 12 12 12 12 12 12 13 13 13 13 13 14 14 15 14 14
15 15 16 16 17 17 16 15 15 19 18 15 16 15 14 16 17 11 12 12 12 12 12 12 12 11 11 11 12 13 13 13 13 13 13 13 13 13 14 14 14 14 13 14
15 15 16 14 16 17 14 16 17 15 14 14 15 15 15 12 12 11 12 12 11 11 11 11 11 11 11 11 12 13 13 13 13 13 13 13 13 14 14 13 13 13 12 12
15 14 15 15 15 13 12 12 12 11 12 13 13 13 12 11 10 12 10 11 11 11 11 10 11 12 11 11 11 12 13 13 13 12 12 12 12 12 12 12 12 12 12 12
13 11 14 13 13 14 13 13 11 11 11 12 12 11 12 10 9 9 11 11 11 11 11 11 11 11 11 11 11 11 11 11 11 11 11 11 11 11 11 11 11 11 11 11
13 12 13 14 13 13 12 13 13 13 12 12 11 11 11 10 9 11 11 11 12 11 11 11 10 10 10 10 10 10 10 10 10 10 10 10 10 10 10 10 10 10 11 11
12 14 14 15 12 12 12 12 12 12 12 11 12 10 10 11 11 11 10 9 11 10 10 10 10 10 10 9 9 9 9 9 9 9 9 9 9 9 9 9 9 9 9 10

GFSCGP_850_temp_108.txt.gz
Temp
23 25 25 27 28 28 28 28 22 22 21 19 19 18 18 18 20 24 24 24 23 23 22 21 21 21 20 19 18 18 17 17 17 17 18 18 19 18 18 18 18 18 18 18
24 25 27 27 27 27 28 28 24 21 21 20 19 20 17 17 19 24 24 24 24 23 23 22 21 21 21 19 19 18 17 18 18 18 18 19 19 18 18 18 18 18 17 18
26 27 26 25 26 27 28 28 26 24 20 19 19 19 18 16 17 22 24 24 24 24 23 22 22 21 21 20 19 18 18 18 18 18 18 18 18 18 18 18 17 17 17 18
26 26 25 25 26 27 27 27 27 24 24 21 20 20 19 17 17 20 22 23 24 24 23 23 22 22 21 21 19 18 18 17 18 18 18 18 18 18 18 18 18 18 18 18
26 25 25 25 26 26 26 26 26 26 26 25 24 22 20 19 18 18 20 23 24 24 23 24 23 22 22 21 20 19 18 18 18 18 18 18 19 19 19 18 18 18 18 18
26 26 26 27 27 25 25 25 25 25 26 26 26 24 20 22 23 24 19 23 24 24 24 24 24 23 22 22 20 20 18 18 18 18 18 18 18 18 18 18 18 18 18 18
24 25 26 26 26 25 24 25 23 22 24 25 27 25 27 25 24 26 24 22 23 24 24 24 24 22 21 22 21 20 18 18 18 18 17 17 18 18 17 18 19 18 18 19
24 23 25 26 27 26 25 24 25 23 24 27 24 26 27 26 25 25 25 24 22 24 24 24 23 23 21 22 21 20 19 18 18 18 18 18 18 18 18 18 19 19 19 18
25 25 27 27 27 27 26 25 28 27 28 27 24 26 25 23 25 24 25 24 24 22 24 24 24 23 22 21 21 20 19 18 18 18 18 18 18 18 18 18 18 18 18 19
25 24 26 26 27 27 28 28 27 27 26 26 26 26 28 24 23 25 25 24 24 22 22 23 23 22 22 21 21 20 20 19 19 18 18 18 18 18 19 18 18 18 18 18
25 25 25 26 25 26 26 26 28 29 29 28 27 27 28 25 25 26 25 25 24 23 21 21 21 21 20 20 20 20 19 19 20 19 18 18 18 18 17 17 17 18 18 18
25 25 25 26 27 28 28 27 28 27 26 27 28 26 23 24 25 24 24 24 24 23 22 21 21 21 20 19 19 20 20 19 19 19 19 18 18 18 18 17 17 18 18 18
24 25 24 25 26 26 26 27 28 29 29 28 27 28 23 23 22 22 21 22 22 22 21 19 19 20 19 19 20 20 19 18 18 17 18 18 17 18 17 17 17 18 18 19
20 25 24 24 25 27 25 26 27 28 27 28 29 28 24 22 22 20 20 20 19 19 18 19 19 18 19 19 19 19 19 18 18 18 18 17 18 18 17 17 18 17 18 17
23 23 24 25 24 25 25 26 26 27 27 28 29 29 29 25 22 20 19 17 17 17 16 16 17 16 16 17 18 18 18 17 18 16 17 17 17 17 16 18 18 17 18 18
23 22 23 23 24 24 24 25 26 27 28 27 28 28 27 24 20 17 16 15 15 15 15 15 16 16 16 16 17 17 18 15 15 15 15 16 16 17 17 17 17 18 18 18
22 23 22 23 23 24 23 23 24 25 25 26 27 26 25 22 19 17 16 16 15 14 14 15 16 15 16 16 16 16 15 15 15 15 15 15 16 15 15 17 16 17 17 17
21 21 22 21 22 21 22 23 23 23 23 24 24 23 24 20 18 17 16 16 14 13 14 14 14 15 15 15 14 15 14 15 15 15 15 15 15 15 14 15 16 16 17 16
21 21 21 21 21 23 22 21 21 22 23 22 23 22 19 16 16 15 15 15 14 13 13 14 14 14 15 15 15 16 15 15 15 15 15 15 15 15 15 15 14 15 16 15
21 20 21 21 19 18 19 21 20 21 22 20 21 20 17 15 16 14 15 14 12 13 13 13 13 13 14 14 14 14 14 14 14 14 14 14 14 14 13 14 14 14 15 14
20 20 18 20 19 20 19 19 20 20 19 19 20 18 15 16 18 15 13 13 11 12 12 12 12 12 12 12 12 13 13 13 13 13 13 13 13 13 13 13 14 14 13 14
19 19 19 20 18 18 17 20 19 17 17 18 19 19 16 14 13 13 12 11 10 10 10 11 11 10 10 10 11 11 11 11 11 12 12 12 12 12 13 13 13 12 12 13
18 19 19 18 18 16 16 16 16 15 16 16 17 18 14 14 13 11 11 10 10 11 10 10 11 11 10 10 10 11 12 11 11 11 12 12 12 12 12 12 12 12 12 11
17 16 18 17 17 17 16 16 15 14 14 14 15 15 15 14 11 10 10 10 10 10 10 11 11 11 11 11 10 10 11 11 11 11 11 11 10 11 11 10 10 9 10 10
18 16 18 18 17 16 16 15 14 14 14 13 13 14 14 13 11 11 10 10 10 9 9 9 9 9 10 11 11 11 11 10 10 10 10 10 9 9 10 10 9 11 11 11
17 18 17 17 16 16 15 14 14 15 14 13 13 12 12 12 11 9 9 9 10 9 9 10 9 10 10 10 9 10 10 9 7 7 8 8 8 8 8 10 10 10 10 10

GFSCGP_850_temp_111.txt.gz
Temp
25 27 27 29 30 29 25 25 22 22 20 18 18 18 18 21 21 24 25 26 24 24 24 23 24 23 22 21 20 19 19 18 19 19 19 20 20 19 19 19 18 18 18 18
27 27 30 30 29 30 27 21 20 22 19 18 17 18 18 17 22 23 24 25 25 24 24 24 24 23 23 21 20 19 19 18 19 20 20 20 19 20 19 19 18 18 18 18
28 29 30 30 27 29 30 25 23 23 19 18 17 18 17 19 20 23 24 25 25 24 25 24 23 24 23 22 21 19 19 18 19 19 20 19 19 19 19 19 19 18 18 18
28 30 29 29 28 30 28 28 23 23 23 22 22 18 17 18 19 19 21 24 25 24 24 25 24 22 23 22 21 20 19 18 18 19 19 19 19 19 19 19 20 19 18 18
28 29 28 27 28 30 28 29 20 26 25 24 22 21 17 17 17 20 21 23 25 26 24 25 24 23 23 23 22 21 19 19 19 18 19 18 19 20 20 20 20 18 18 18
29 29 29 29 30 29 28 28 28 26 27 26 24 24 20 19 19 21 21 23 24 23 26 23 24 23 22 24 23 22 20 18 18 18 18 19 19 18 19 20 19 20 19 19
27 27 29 29 29 28 27 28 23 21 24 25 27 26 25 23 25 24 24 23 25 23 25 25 24 22 24 24 23 22 20 18 18 18 18 18 18 19 18 18 19 20 20 20
27 26 28 29 29 28 28 28 23 24 24 24 29 27 23 26 26 25 25 22 22 26 25 25 25 23 24 24 23 23 20 19 19 19 18 18 17 18 19 19 19 20 20 20
28 27 29 29 29 30 28 27 30 24 28 26 26 29 26 28 27 27 26 23 22 25 26 27 26 24 24 24 23 22 21 20 19 19 19 18 18 18 19 19 18 19 19 20
28 27 29 29 29 29 29 30 28 29 25 24 23 23 28 26 27 28 28 24 24 24 24 25 27 26 24 24 23 23 21 20 20 20 19 19 18 18 18 18 19 19 19 19
27 27 28 28 28 28 28 29 29 30 30 27 25 25 28 27 26 27 28 27 24 25 25 25 26 25 25 24 23 23 22 20 20 20 20 20 19 19 19 18 18 18 18 20
27 27 27 28 29 30 30 29 29 29 28 30 29 23 26 29 28 27 28 27 27 26 24 25 25 24 24 22 21 21 22 21 20 20 20 19 20 19 19 19 18 18 18 18
26 26 26 27 29 29 29 30 30 31 31 29 29 27 26 27 27 27 27 27 27 26 24 22 22 22 21 21 19 19 20 20 20 19 19 20 19 19 19 19 19 19 18 18
23 26 25 24 23 26 27 28 30 30 29 29 30 26 26 26 25 24 25 25 26 25 23 21 20 20 19 19 19 19 19 19 19 19 19 19 18 19 19 19 19 19 18 18
25 24 25 26 25 26 28 29 29 29 29 29 31 31 29 28 26 23 22 22 23 20 22 23 20 18 18 19 19 19 19 19 19 20 18 18 18 18 18 18 18 18 18 18
26 24 25 24 24 25 27 28 28 29 29 29 30 29 30 27 25 23 20 19 19 17 17 19 18 18 17 17 19 19 18 18 18 17 16 16 17 18 17 18 18 17 18 17
24 24 22 24 26 26 24 27 28 28 29 30 28 26 28 23 22 20 18 18 17 17 16 16 16 17 18 17 16 16 16 15 17 17 16 16 16 16 17 17 16 17 17 17
23 23 24 23 22 21 25 27 27 27 26 28 27 26 27 24 21 18 18 18 17 16 14 15 16 16 17 16 16 16 16 16 16 16 15 15 15 15 15 16 15 16 16 16
24 23 23 22 20 18 18 24 25 25 24 25 26 26 24 21 19 18 18 18 16 15 13 14 15 15 15 15 15 15 15 15 16 15 15 15 15 15 14 14 14 15 15 16
23 23 22 22 21 16 14 17 22 24 22 18 24 25 21 19 22 19 17 15 14 14 12 14 14 14 14 14 15 15 15 15 15 15 15 15 14 15 14 14 14 15 15 15
19 19 21 22 20 20 19 16 19 20 19 21 22 20 18 19 18 18 14 14 12 11 13 13 13 13 13 13 14 14 14 14 14 14 14 14 14 13 13 13 13 14 15 15
21 19 21 21 15 16 20 21 19 19 20 20 21 20 18 14 17 14 12 12 12 12 12 12 12 12 11 11 12 12 12 12 12 13 12 12 12 11 12 13 13 14 13 13
20 22 19 21 17 19 19 19 18 19 19 18 19 19 17 16 15 13 12 11 11 11 10 11 11 11 10 10 11 11 10 10 10 11 11 11 11 11 11 11 11 12 12 11
21 20 20 20 20 19 19 18 18 17 17 18 18 19 17 15 13 12 11 11 11 10 10 10 10 11 11 11 12 11 11 11 11 11 11 11 10 11 10 11 12 12 12 12
20 19 20 20 20 18 18 17 17 17 17 16 16 16 15 14 12 11 10 10 9 10 10 10 10 9 11 9 10 10 10 10 9 9 9 9 10 9 11 11 10 11 11 11
20 20 20 19 19 18 17 16 16 17 17 16 16 15 14 13 11 11 10 9 9 9 10 10 11 10 9 9 9 8 8 8 9 10 10 11 10 9 8 10 11 11 11 11

GFSCGP_850_temp_114.txt.gz
Temp
25 26 26 28 29 28 27 25 21 20 18 18 16 16 19 20 20 25 27 27 25 25 25 25 24 22 21 20 20 20 19 19 19 19 20 20 19 19 19 19 19 19 19 19
27 26 29 30 29 26 28 26 20 19 18 18 17 18 18 18 19 23 26 26 25 24 24 25 24 23 22 21 20 20 19 19 20 20 19 19 19 19 19 19 19 18 19 20
27 29 30 30 29 27 27 28 22 20 18 18 18 17 16 17 17 18 21 25 25 23 22 24 24 23 22 21 20 19 19 19 18 18 18 19 19 19 19 19 19 19 19 19
28 30 30 30 29 28 28 24 21 18 18 20 19 18 17 17 17 17 19 24 24 25 25 24 24 24 23 21 21 20 19 19 19 19 18 19 19 19 19 19 19 19 19 20
28 29 30 29 30 28 25 27 22 20 19 20 20 20 18 16 17 18 19 23 23 23 25 23 25 24 23 22 21 20 20 19 19 19 19 19 19 20 20 19 19 19 19 19
29 30 31 30 31 30 28 25 22 18 17 20 22 22 20 17 19 21 22 22 23 24 24 24 22 24 23 23 22 20 20 19 19 19 19 18 18 19 19 19 19 20 20 19
28 29 30 30 29 30 28 28 23 20 22 22 24 24 23 21 23 23 22 22 23 23 24 24 22 23 23 22 22 21 20 20 19 19 19 19 19 19 19 19 20 19 20 20
27 27 29 30 30 29 28 29 26 23 22 22 23 23 22 24 24 23 24 23 24 24 23 23 24 23 23 22 22 21 21 21 19 19 19 18 18 18 19 19 19 20 19 19
27 28 30 30 30 31 29 28 30 26 19 23 19 18 25 25 25 23 23 23 23 22 24 23 23 23 22 21 22 22 21 21 19 19 19 19 18 19 19 19 21 20 19 19
28 27 30 30 30 30 30 31 28 26 22 22 20 20 18 24 25 26 25 25 24 23 22 24 24 23 23 22 22 22 22 21 20 19 19 19 19 19 19 19 19 18 19 20
27 27 29 30 28 28 29 28 29 30 27 23 23 25 21 21 17 26 25 25 24 24 24 24 24 21 24 23 23 22 21 21 20 20 20 19 19 19 19 19 19 19 20 19
28 28 27 28 30 31 30 29 30 28 28 29 29 27 23 22 23 27 25 25 25 24 25 25 24 22 23 24 23 21 21 21 21 21 20 20 20 20 19 19 19 19 19 19
26 26 25 27 29 30 29 29 30 30 30 29 28 25 24 24 24 27 27 26 25 25 25 25 26 21 23 22 23 21 20 20 21 20 20 20 20 20 20 19 19 19 19 19
24 26 26 23 24 25 26 27 30 30 29 29 30 26 27 28 28 28 28 26 25 24 25 25 23 23 21 18 20 22 19 19 19 20 20 19 19 19 19 20 19 19 19 19
26 24 25 26 26 26 26 26 28 29 30 29 31 28 27 28 28 27 27 27 23 23 23 24 21 21 20 20 21 20 21 20 20 19 19 19 19 20 20 19 19 19 19 19
26 24 25 25 26 26 25 27 27 29 30 30 30 30 28 22 22 16 25 24 21 22 22 21 21 19 20 21 20 20 20 20 20 19 19 19 19 19 18 18 18 18 18 18
19 24 23 23 25 24 24 26 26 28 30 29 28 22 22 20 15 15 20 22 19 18 18 18 18 18 18 19 19 19 19 18 18 18 18 18 19 18 18 18 17 17 17 17
23 24 23 21 20 19 22 23 23 22 23 24 22 22 21 20 18 18 19 19 17 17 16 16 16 17 17 17 17 17 17 17 17 17 17 17 16 16 16 16 16 17 16 16
25 23 23 20 13 19 23 21 20 19 19 22 20 19 19 18 18 18 18 18 16 15 15 16 16 16 17 17 17 16 16 16 16 16 16 15 15 15 15 16 16 15 15 15
25 23 22 21 19 15 16 20 19 20 19 22 20 17 16 16 17 17 17 15 14 13 14 15 15 15 16 16 16 16 15 16 15 15 15 16 16 15 15 16 15 15 15 15
17 20 21 22 19 15 17 17 18 16 18 20 21 17 18 16 16 16 15 13 13 13 13 14 14 14 15 15 15 15 15 15 15 15 15 15 15 14 14 14 14 14 15 15
13 13 20 20 20 18 16 14 12 18 19 19 20 17 17 17 15 14 13 12 12 12 12 13 13 13 13 13 13 14 14 14 14 14 14 14 14 13 13 13 14 14 14 13
21 21 20 15 16 19 20 20 19 19 20 20 20 18 17 15 13 13 12 12 11 11 11 11 12 11 11 11 12 13 12 12 12 12 12 12 12 12 12 13 13 12 13 13
23 22 21 21 21 20 20 19 19 18 18 19 19 19 18 14 13 12 11 10 10 10 10 10 11 11 11 10 11 11 11 11 11 11 11 11 11 11 11 11 11 11 12 12
21 20 21 21 21 20 19 19 18 18 18 18 17 17 16 13 12 12 11 10 10 10 10 10 10 11 11 11 11 11 11 11 11 10 11 11 10 11 11 11 12 12 12 12
22 21 20 19 19 19 18 17 18 18 18 18 17 15 14 13 11 11 11 10 10 10 10 10 10 10 10 10 11 10 9 9 10 10 10 10 10 10 10 11 11 12 12 12

GFSCGP_850_temp_117.txt.gz
Temp
25 22 20 22 24 25 25 23 20 18 18 17 17 17 18 18 19 20 25 26 25 25 24 24 22 22 22 20 20 20 20 19 19 19 19 19 19 19 19 19 19 19 19 19
23 20 23 26 26 24 23 21 19 18 17 18 16 17 17 18 18 19 21 24 24 24 24 23 22 22 21 20 20 20 20 20 19 19 19 19 19 19 19 19 19 19 19 19
22 24 26 27 27 24 20 22 19 19 18 17 17 17 17 18 17 19 20 22 25 24 24 22 22 22 21 20 20 20 20 20 19 19 19 19 19 19 19 18 19 19 19 19
24 26 27 27 27 26 21 20 20 19 19 18 17 18 17 17 17 17 18 19 24 24 24 22 22 22 22 21 21 20 20 20 19 19 19 19 19 19 19 19 19 19 19 19
24 26 26 27 28 24 20 19 20 20 18 17 17 17 18 17 17 17 18 19 22 24 24 24 22 22 22 21 21 21 20 20 18 19 19 19 19 19 18 19 20 19 19 19
25 29 28 27 29 25 22 20 18 18 18 18 19 19 18 17 18 18 19 20 21 21 23 23 23 22 22 22 21 21 21 20 19 18 18 19 19 19 19 19 19 19 19 19
26 26 28 30 23 24 22 21 19 18 18 19 19 19 20 18 19 21 21 20 20 22 22 23 23 22 22 21 21 21 21 21 20 19 18 19 19 19 19 19 19 19 19 19
23 23 27 29 26 24 22 21 18 21 20 20 17 19 20 21 20 21 20 21 21 21 22 23 24 23 22 21 21 21 21 21 20 20 20 19 19 20 19 19 19 19 19 20
24 24 28 28 28 27 26 23 24 17 18 19 18 18 17 21 21 21 20 21 21 22 23 23 23 23 22 22 21 20 20 20 21 20 19 19 20 19 19 19 20 19 20 20
24 22 25 28 29 28 27 27 24 20 19 19 19 17 17 18 22 22 22 22 22 23 24 23 22 22 22 23 22 21 20 21 21 21 20 19 19 19 20 19 19 20 20 19
24 23 23 27 26 25 25 24 24 23 22 20 20 19 18 19 21 20 21 23 23 22 23 24 23 23 23 23 22 21 20 21 20 21 20 19 19 19 19 20 19 20 20 20
22 23 20 23 27 27 26 26 24 21 22 22 20 21 23 20 21 23 23 22 23 23 23 23 23 22 23 23 22 22 21 21 21 20 20 20 20 19 19 19 19 19 20 20
21 20 19 22 23 24 25 25 25 23 22 22 23 20 21 22 21 26 24 23 24 23 24 24 24 23 22 22 21 20 21 21 20 20 20 20 19 19 19 19 19 19 19 19
24 21 20 19 23 24 23 24 24 22 21 22 23 23 21 21 21 22 23 23 24 24 23 23 23 22 20 21 20 19 20 21 20 20 19 19 19 19 19 19 19 19 19 19
22 20 21 22 25 25 24 24 25 22 20 21 25 22 20 18 19 17 23 24 23 23 23 23 23 22 22 22 18 20 21 21 20 20 20 19 19 19 19 18 19 18 18 19
19 18 19 20 23 23 23 23 23 23 19 18 22 20 19 18 22 20 19 20 21 22 21 21 20 20 21 20 20 21 20 19 19 20 18 18 18 19 19 18 19 18 18 17
19 19 19 19 20 21 21 20 20 21 19 17 18 18 18 17 18 21 20 19 17 19 19 20 19 19 19 20 21 21 19 18 18 19 18 18 19 19 19 18 18 18 18 17
20 19 19 18 19 19 17 19 20 20 20 19 17 18 18 17 17 19 19 18 18 20 16 17 19 18 18 19 18 19 19 18 19 19 19 19 19 18 18 17 17 17 17 17
21 19 17 17 15 16 19 18 18 17 17 19 18 17 16 18 18 16 17 16 15 15 16 16 16 18 18 17 17 18 18 17 17 17 18 18 17 16 15 16 15 15 16 16
16 16 16 17 19 16 17 17 16 18 16 18 17 16 16 18 15 15 15 15 15 15 15 15 15 16 19 18 17 17 17 16 17 16 16 15 16 15 15 15 15 15 15 15
14 14 16 16 16 16 17 16 17 17 15 19 18 17 16 14 15 13 15 15 15 14 14 13 14 15 16 16 16 17 17 16 16 15 15 15 15 14 15 15 15 15 15 15
14 14 15 15 15 13 17 16 17 17 18 20 18 17 17 15 14 14 13 13 13 13 13 13 13 14 14 15 15 15 15 15 15 15 15 14 14 14 14 15 14 14 14 14
16 15 15 14 13 17 18 18 18 19 18 19 18 17 17 16 14 14 15 15 13 13 12 12 12 13 13 13 13 14 13 13 14 14 14 14 14 14 14 13 13 13 13 13
18 20 16 15 16 15 19 19 18 18 18 18 17 16 15 15 14 13 12 11 12 11 11 11 11 11 12 12 12 12 12 12 12 12 13 13 13 12 13 13 13 13 12 12
18 20 18 17 15 16 18 18 18 18 18 18 16 15 15 14 13 13 12 11 10 10 10 10 11 11 11 11 11 11 11 10 10 10 10 10 11 11 11 11 11 11 12 12
20 18 16 14 18 17 17 18 18 18 18 18 16 15 13 13 12 11 11 10 10 10 9 9 10 11 11 11 10 10 10 11 11 10 11 10 10 11 11 11 11 11 11 11

GFSCGP_850_temp_120.txt.gz
Temp
23 19 19 20 21 23 21 19 19 18 17 17 17 17 18 17 19 20 22 24 23 23 22 21 21 21 20 20 20 20 19 19 19 19 19 19 19 19 19 19 19 19 19 19
19 19 20 22 24 24 22 21 19 18 17 17 17 17 16 17 18 19 19 22 24 22 22 22 21 21 21 20 20 20 20 19 19 19 19 19 19 19 19 19 19 19 19 18
19 21 23 23 23 23 21 21 18 19 18 17 17 17 16 18 18 19 19 21 23 23 22 21 21 21 21 21 20 20 20 20 19 19 19 19 19 19 18 18 19 19 19 19
20 23 24 24 23 21 20 23 21 19 18 18 17 18 17 17 18 18 19 20 22 21 22 22 21 21 21 21 20 20 20 19 19 18 19 19 19 19 19 19 19 19 19 19
21 24 23 23 25 22 18 21 20 20 17 17 17 17 18 16 17 18 19 20 21 21 22 22 22 22 22 21 20 20 20 20 19 19 19 19 19 19 19 19 19 19 19 19
22 25 24 24 25 22 20 19 17 18 17 17 18 18 18 17 18 20 19 20 21 21 20 22 22 22 22 21 20 20 20 20 20 19 19 18 19 19 19 19 19 19 19 19
22 24 23 22 19 20 19 18 17 18 17 18 17 18 19 20 20 20 21 20 20 21 21 21 21 21 21 21 21 20 20 20 20 20 19 19 19 19 19 19 19 19 19 19
20 21 24 24 21 19 19 19 17 18 19 19 17 18 19 21 20 21 21 21 20 21 22 21 22 22 21 21 21 21 20 20 20 20 20 19 19 19 19 19 19 19 19 19
21 22 25 25 23 22 21 20 20 16 17 18 18 18 18 18 20 20 20 19 18 20 22 22 22 22 22 22 22 21 21 20 20 20 20 19 19 19 19 19 19 19 19 19
22 22 23 24 25 23 22 22 19 16 18 19 18 18 19 20 20 19 20 20 20 21 21 21 22 22 22 22 22 21 21 21 21 20 20 20 20 19 19 19 19 19 19 19
20 20 21 23 23 23 23 23 20 18 17 18 18 18 18 20 20 20 20 20 20 21 21 22 22 22 22 22 21 22 21 21 21 20 20 20 20 19 20 19 19 19 19 19
21 18 19 22 23 23 23 23 19 18 21 18 19 20 23 19 20 21 21 21 21 22 22 22 23 23 22 22 22 21 21 21 21 21 20 20 19 19 19 19 19 19 19 19
20 17 17 18 20 21 21 22 21 17 15 18 19 21 19 20 19 21 21 21 22 22 21 22 23 23 23 22 21 21 21 21 21 20 19 19 19 19 19 19 20 20 20 20
21 16 18 17 19 21 21 21 18 17 15 16 17 20 19 19 20 21 22 22 22 22 22 22 22 23 23 22 22 21 21 21 21 20 19 19 19 19 19 19 19 19 19 19
17 17 18 19 21 20 19 20 19 16 17 17 17 17 16 17 19 18 19 23 22 21 21 22 22 22 23 21 21 21 21 21 20 20 19 19 19 19 19 19 19 18 18 18
15 17 18 19 20 19 18 19 19 18 18 18 17 17 16 16 17 16 17 19 20 20 21 21 22 22 22 21 21 21 21 20 19 19 19 20 19 19 19 19 19 19 18 18
17 16 15 18 18 19 16 16 18 18 17 16 16 15 15 14 15 16 17 16 17 19 20 20 19 21 22 21 19 20 21 20 17 18 18 18 19 19 18 18 19 19 18 18
16 15 13 15 16 17 16 17 18 17 17 17 16 16 15 14 15 16 16 16 15 16 18 18 17 17 17 19 18 20 19 17 16 18 17 18 19 18 17 18 18 18 18 18
14 13 14 14 13 16 17 16 16 17 16 17 16 15 16 16 15 14 15 16 16 16 15 16 18 18 16 17 17 17 16 17 18 19 18 17 16 16 17 18 17 16 15 16
13 11 14 13 16 16 15 16 16 16 14 18 17 16 15 17 13 14 13 14 15 15 16 15 15 16 17 16 16 16 16 17 17 17 16 16 16 15 15 15 16 15 14 15
12 11 13 13 14 15 16 16 16 15 14 18 18 17 16 14 14 13 13 14 15 15 14 14 15 15 16 18 17 16 16 16 16 16 15 15 14 15 15 16 15 15 15 15
13 12 12 11 13 15 16 17 15 14 17 18 18 17 15 15 13 13 14 15 14 13 13 14 14 14 15 16 16 16 16 15 15 15 15 14 14 14 14 14 14 14 14 14
15 13 12 12 11 14 16 17 17 18 17 18 17 16 17 16 14 13 13 12 12 13 12 13 14 14 14 14 14 14 14 14 15 14 14 14 14 14 14 14 14 14 14 13
17 15 13 13 15 16 18 17 18 18 17 17 17 16 15 14 13 12 12 10 11 11 12 12 13 14 13 13 13 13 13 13 13 13 13 13 13 13 13 13 13 13 13 13
15 16 12 12 13 16 17 17 18 18 16 16 16 16 15 14 12 12 11 11 11 11 11 11 12 13 14 12 12 12 12 12 12 12 12 12 13 12 13 13 12 12 12 12
17 14 12 11 16 15 16 18 18 17 16 17 16 15 15 14 14 13 12 11 11 11 12 12 12 11 11 12 12 12 11 11 11 11 11 11 11 11 11 11 11 10 11 11

GFSCGP_850_temp_123.txt.gz
Temp
21 18 18 19 19 20 19 19 18 18 17 17 17 17 17 16 16 20 20 21 20 20 21 21 21 20 19 19 19 19 19 18 18 18 18 18 19 19 19 19 19 18 19 19
18 18 20 21 21 22 20 19 18 18 17 17 16 17 16 17 17 17 19 21 21 20 20 20 20 20 20 20 20 19 19 18 18 18 18 18 19 19 19 19 18 19 19 19
18 20 21 22 23 21 20 19 18 18 17 17 17 17 16 16 17 18 19 20 21 21 20 20 20 20 20 20 20 20 20 19 19 18 18 18 18 18 18 18 18 19 19 19
19 21 22 21 22 21 19 21 20 20 18 18 17 18 16 16 17 17 18 19 21 20 21 21 20 19 20 20 20 20 20 19 19 19 18 19 18 18 19 19 18 18 19 19
20 22 21 21 22 21 20 20 19 19 17 18 17 17 18 16 16 17 18 19 20 20 19 20 20 20 21 20 20 20 20 19 19 19 19 19 19 19 19 18 18 18 18 19
20 23 22 22 23 23 20 18 18 17 17 16 18 18 19 16 17 18 19 19 19 20 19 20 21 20 21 20 20 20 20 20 20 19 19 19 19 19 19 18 18 18 18 18
21 23 20 20 18 19 18 17 16 18 17 17 17 17 18 19 19 19 18 19 20 19 20 19 20 20 20 20 20 20 20 20 20 19 19 19 19 19 19 19 19 18 18 18
20 21 20 22 20 18 18 18 19 18 18 19 17 18 19 21 21 21 20 21 20 19 20 20 20 21 21 21 20 20 20 19 19 20 20 19 19 19 19 19 19 19 19 19
20 21 23 22 21 20 19 19 19 17 16 17 18 19 19 19 20 19 20 20 19 19 20 20 21 21 21 21 21 21 20 20 19 19 20 20 19 19 19 19 19 19 19 19
21 21 22 24 23 22 20 20 19 17 18 18 18 18 18 19 18 18 20 19 19 20 20 21 21 21 22 22 22 21 21 21 20 20 19 20 20 19 19 19 19 19 19 19
19 19 21 22 22 20 21 20 17 17 16 18 19 18 18 19 18 18 19 19 19 21 21 20 21 21 22 21 22 21 21 21 21 20 20 19 19 19 19 20 19 19 19 19
19 16 18 22 21 22 22 22 18 18 20 16 19 20 18 19 18 19 19 19 20 20 21 20 21 21 21 21 22 22 21 21 21 21 20 20 19 19 19 19 19 19 19 19
21 15 16 16 17 20 19 19 17 14 14 18 19 20 17 18 18 19 19 20 20 20 21 21 21 22 21 22 22 21 22 21 21 21 20 19 19 18 18 19 19 19 19 19
19 15 19 16 18 17 18 18 17 15 15 16 16 16 16 16 17 17 20 20 20 20 20 21 22 22 22 22 22 22 22 21 21 21 20 19 19 19 18 18 18 18 19 18
16 16 18 18 18 18 18 18 17 16 17 16 16 15 15 15 15 15 16 20 21 21 20 21 21 23 22 22 22 21 21 21 21 20 20 20 19 18 18 18 18 18 18 18
14 16 18 18 18 17 16 17 17 17 16 16 15 15 14 15 15 15 15 16 18 20 20 20 21 22 22 22 22 22 21 21 21 20 20 20 19 18 18 18 18 18 19 18
15 14 14 17 16 17 16 16 16 16 16 16 15 15 15 15 14 14 15 15 15 15 16 17 19 20 22 22 21 22 21 20 20 20 19 19 19 19 18 18 19 19 18 18
14 13 11 14 15 17 16 16 17 16 16 15 15 15 15 15 14 13 14 15 15 15 16 17 18 19 20 21 20 19 20 19 18 19 19 19 18 18 18 18 19 19 19 18
12 11 12 14 12 14 17 17 16 15 16 16 16 15 15 15 16 14 14 14 14 14 15 16 16 17 18 18 18 18 18 18 17 16 18 19 17 17 17 18 18 17 18 17
12 10 12 11 15 15 15 16 16 16 14 17 17 16 15 15 15 13 15 15 15 14 14 15 16 16 17 16 17 15 16 16 15 16 17 17 17 16 17 17 16 16 17 15
11 10 12 12 13 13 14 15 16 15 14 16 17 17 15 13 13 14 13 14 13 13 13 14 15 15 15 16 17 17 15 15 16 16 16 16 15 15 16 15 15 15 15 15
13 12 11 10 12 16 16 15 15 14 16 17 17 16 15 13 12 12 12 12 12 13 13 13 14 15 15 15 16 15 14 15 15 15 15 15 14 14 15 15 15 14 14 14
14 12 12 12 11 13 15 16 17 17 17 17 17 16 15 13 12 12 12 12 11 12 12 12 13 14 14 15 15 15 14 15 15 15 15 14 14 14 14 14 15 14 14 13
15 13 12 13 13 15 17 17 17 17 17 17 17 16 14 14 12 12 12 11 11 12 12 12 12 13 14 14 14 14 14 14 14 14 14 14 14 14 14 14 14 13 13 13
14 14 11 11 13 15 16 17 17 17 17 17 16 16 15 14 14 13 12 12 12 12 12 12 12 12 12 12 13 13 13 13 13 13 13 13 13 13 13 13 13 13 13 12
14 12 11 11 16 16 17 17 17 17 17 17 17 16 15 14 14 13 12 13 12 11 11 11 11 11 11 11 11 11 11 11 12 12 12 12 12 12 12 12 12 12 11 10